Track ZHANGHENG-1 now! 10-day predictions ZHANGHENG-1 is classified as:
1 43194U 18015C 24326.13007817 .00020662 00000-0 93321-3 0 9997 2 43194 97.6274 111.5841 0003257 338.1188 21.9908 15.20993490377545